Regional Weather Roundup
Issued by NWS Northern Indiana

Home | Current Version | Previous Version | Graphics & Text | Print | Product List | Glossary On
Versions: 1 2 3 4 5 6 7 8 9 10 11 12 13 14 15 16 17 18 19 20 21 22 23 24 25 26 27 28 29 30 31 32 33 34 35 36 37 38 39 40 41 42 43 44 45 46 47 48 49 50
000
ASUS43 KIWX 241910
RWRIWX

KIWX WEATHER ROUNDUP
NATIONAL WEATHER SERVICE NORTHERN INDIANA
200 PM EST WED DEC 24 2014

NOTE: "FAIR" INDICATES FEW OR NO CLOUDS BELOW 12,000 FEET WITH NO
SIGNIFICANT WEATHER AND/OR OBSTRUCTIONS TO VISIBILITY.

* THESE STATIONS ARE NOT UNDER NWS QUALITY CONTROL. THEY ALSO MAY NOT
  REPORT WEATHER SUCH AS PRECIPITATION OR FOG.

INZ001>027-242000-
NORTHERN INDIANA

CITY           SKY/WX    TMP DP  RH WIND       PRES   REMARKS
GARY*          CLOUDY    41  36  81 W9        29.49F FOG
VALPARAISO     LGT RAIN  39  36  89 NW7       29.49F
MICHIGAN CITY* RAIN      37  36  93 NW5       29.47F
LAPORTE*       RAIN      41  41  99 NW5       29.46F
KNOX*          CLOUDY    39  35  84 NW7       29.46F
SOUTH BEND     LGT RAIN  40  38  93 NW9       29.45F
ELKHART*       DRIZZLE   39  36  87 NW7       29.42F
GOSHEN         CLOUDY    40  37  89 N13       29.41F
MONTICELLO*    LGT RAIN  38  37  95 NW13      29.48F
LOGANSPORT*    RAIN      37  36  93 W8        29.47R
ROCHESTER*     LGT RAIN  41  39  93 NW13G20   29.43F
WARSAW*        FLURRIES  37  37 100 NW9       29.41F
ANGOLA*        CLOUDY    39  37  93 N7        29.35F
FORT WAYNE     CLOUDY    42  39  89 N9        29.37F
HUNTINGTON*    LGT RAIN  40  39  97 NW6       29.38F
PERU/GRISSOM   RAIN      40  40 100 NW12      29.44R
MARION*        RAIN      40  40  99 NW10      29.42S

$$
INZ028>050-242000-
CENTRAL INDIANA

CITY           SKY/WX    TMP DP  RH WIND       PRES   REMARKS
LAFAYETTE      LGT RAIN  38  36  92 W8        29.51S
KOKOMO*        CLOUDY    39  37  93 NW13      29.44S
MUNCIE*        RAIN      42  40  92 NW8       29.40F FOG
INDIANAPOLIS   LGT RAIN  38  36  92 NW16      29.48S

$$
MIZ043>046-050>051-056>058-064>065-071>073-077>080-242000-
SOUTHWEST LOWER MICHIGAN

CITY           SKY/WX    TMP DP  RH WIND       PRES   REMARKS
BATTLE CREEK   CLOUDY    40  37  89 N14       29.38F
BENTON HARBOR  LGT RAIN  39  37  92 NW7       29.45F
COLDWATER*     CLOUDY    39  38  95 N12G18    29.36F
HILLSDALE*     LGT RAIN  41  41 100 N10G16    29.34F
HOLLAND        CLOUDY    42  37  82 N3        29.46S
GRAND RAPIDS   CLOUDY    39  36  89 N8        29.43F
KALAMAZOO      LGT RAIN  39  37  92 N16       29.39F
STURGIS*       CLOUDY    39  37  93 N12       29.38F
THREE RIVERS*  DRIZZLE   39  37  91 N7        29.40F

$$
OHZ001>008-015>018-024>025-242000-
NORTHWEST OHIO

CITY           SKY/WX    TMP DP  RH WIND       PRES   REMARKS
WAUSEON*       LGT RAIN  43  43 100 N14       29.34F
DEFIANCE       CLOUDY    44  42  93 N9        29.34F
FINDLAY        LGT RAIN  52  49  89 W16       29.33F FOG
TOLEDO EXPRESS LGT RAIN  45  45 100 NW15      29.33F FOG
TOLEDO METCALF CLOUDY    56  53  90 S13       29.33F FOG
LIMA           CLOUDY    47  44  90 NW5       29.34F FOG

$$
AND FOR LAKE MICHIGAN COASTAL AND OPEN LAKE BUOY OBSERVATIONS

STATION/POSITION TEMP    WIND        PRES    VSBY  WAVE
                 AIR SEA DIR/SP/G                  HT/PER
                 (F)     (DEG/KT/KT) (MB)    (MI)  (FT/S)
CALUMET HARBOR    40     270/  4/  9  997.8F
MICHIGAN CITY     38     280/  6/  7   N/A
SAINT JOSEPH      38     310/  6/  7  998.6R
MICHIGAN CITY CG     37                N/A    3 1/2  1

$$
&&


USA.gov is the U.S. government's official web portal to all federal, state and local government web resources and services.